User: anonymous   Login
Location: Innsbruck
(47.2657°N, 11.3914°E)
Time: 18:40:48
(UTC+01:00)
Language:

XW-2F - Orbit

View from above orbital plane
View from above orbital plane
View from above satellite
View from above satellite

Ground track
Ground track

The orbit data is extracted from the following two-line orbital elements,

1 40910U 15049M   21341.24776796  .00003450  00000-0  16345-3 0  9996
2 40910  97.4737 344.7267 0012465 290.9992 124.7843 15.19930800343964
Epoch (UTC): 07 December 2021 05:56:47
Eccentricity: 0.0012465
inclination: 97.4737°
perigee height: 497 km
apogee height: 514 km
right ascension of ascending node: 344.7267°
argument of perigee: 290.9992°
revolutions per day: 15.19930800
mean anomaly at epoch: 124.7843°
orbit number at epoch: 34396

The dashed part of the orbit path shows where the satellite is in the earth's shadow,  

DLR